Wind_Speed
56 57 59 60 61 63 65 67 68 69 71 74 77 79 81 82 82 83 82 85 88 90 93 96 98 99 100 102 106 110 112 113 111 113 117 118 123 125 126 127 132 135 134
59 61 61 63 66 66 68 70 71 73 76 79 81 82 83 81 82 84 87 89 87 91 91 92 95 98 102 107 111 115 115 115 112 118 121 127 130 130 129 129 130 125 117
65 66 66 67 68 68 70 72 75 79 81 84 86 83 83 86 89 88 89 90 91 95 96 99 102 102 103 107 113 113 115 116 119 119 119 119 121 127 128 127 121 117 116
66 68 68 70 72 76 79 79 82 85 86 85 83 84 88 91 92 93 95 96 97 102 104 106 109 113 108 108 109 109 112 114 114 113 117 121 126 128 126 118 114 115 111
73 73 74 77 79 82 84 86 88 89 87 85 84 87 89 92 92 96 99 103 108 109 108 110 111 112 113 113 115 116 119 116 117 121 123 126 128 128 121 117 114 112 107
75 77 80 84 85 86 87 86 87 85 85 87 86 87 89 92 98 101 105 106 108 108 115 118 116 117 118 117 121 119 118 121 124 125 128 128 128 123 121 119 115 111 111
78 75 76 73 73 76 80 83 83 80 80 82 87 92 97 98 99 103 107 110 110 113 118 121 124 122 123 122 122 123 124 128 131 129 129 132 126 123 121 116 113 112 111
88 82 83 84 83 79 79 79 80 81 81 83 88 92 94 99 104 110 114 113 115 118 123 127 128 130 131 127 128 129 130 134 134 132 131 129 125 123 118 115 114 112 109
80 83 79 84 82 83 86 83 87 87 88 88 91 92 95 100 105 109 109 114 121 123 126 130 131 132 130 130 133 136 137 137 135 134 130 127 127 123 119 117 114 110 102
84 82 87 91 95 95 91 90 89 91 92 94 95 99 101 101 107 113 117 122 123 125 130 132 132 132 132 136 139 139 140 138 134 132 131 128 126 123 122 117 113 106 100
87 91 96 98 102 101 100 96 95 96 97 98 102 104 106 110 113 116 119 121 127 129 131 132 133 135 139 143 143 142 138 135 131 128 127 125 125 121 118 116 112 104 96
93 98 102 105 105 106 103 104 103 103 103 104 106 111 114 115 119 122 124 127 129 132 133 134 138 142 144 145 142 139 135 130 128 126 125 125 121 118 113 108 103 98 92
100 106 108 113 114 110 109 108 108 106 106 108 111 115 119 123 124 127 129 131 135 134 136 139 141 142 141 138 136 135 133 131 128 127 124 119 119 114 108 103 97 92 88
110 116 120 119 121 117 115 115 109 110 111 112 116 122 125 126 130 131 134 136 137 137 139 137 138 138 135 134 131 133 132 131 129 124 122 117 114 110 105 97 90 85 78
120 125 128 128 123 119 116 111 110 113 119 121 123 125 128 131 132 135 137 137 138 137 137 136 134 133 130 131 130 129 128 125 122 120 116 112 106 102 96 89 83 80 74
134 133 131 125 124 123 119 119 121 120 122 127 127 128 132 132 135 136 135 133 134 134 131 131 130 131 132 132 130 127 125 124 121 117 111 105 99 94 90 86 80 75 71
137 133 131 131 128 125 125 127 127 128 127 127 128 130 131 129 127 129 128 128 128 128 128 129 130 130 131 129 127 126 123 120 117 113 105 97 92 91 87 82 76 71 69
135 133 129 126 123 122 120 119 120 122 121 119 119 120 120 121 123 123 123 124 127 127 127 128 128 127 126 126 125 122 118 114 107 99 94 90 88 85 82 77 73 69 66
119 118 118 118 118 118 119 117 115 115 114 114 114 115 116 119 122 123 124 124 125 127 127 125 124 123 123 121 118 115 112 107 101 95 92 89 84 79 77 74 71 67 64
114 113 113 113 113 113 113 113 113 114 114 115 116 117 118 119 120 122 123 125 124 123 123 122 121 120 117 115 113 109 105 100 95 92 88 82 79 76 74 70 68 65 61
113 113 113 112 113 113 113 114 115 115 115 115 116 117 119 121 121 121 120 120 120 121 120 119 116 114 111 108 104 101 99 97 93 88 85 80 77 73 70 67 64 61 58
110 111 111 112 112 112 112 113 114 115 116 117 118 118 118 119 118 118 117 118 119 118 116 114 111 107 102 99 98 97 95 91 87 83 79 75 72 69 66 63 60 57 55
111 111 111 111 113 114 114 115 116 116 116 115 115 115 116 116 117 118 118 116 115 114 111 107 102 99 96 95 93 90 89 86 83 78 75 72 69 66 64 61 58 55 53
114 114 115 115 115 115 115 114 113 113 113 113 114 115 116 116 116 114 114 113 111 107 102 98 95 94 92 90 88 85 83 82 79 75 72 70 66 63 61 59 56 53 51
114 114 114 114 113 113 113 112 113 113 113 114 115 114 113 113 111 110 108 105 102 99 95 94 91 89 87 85 83 81 79 78 75 72 70 67 63 61 59 57 54 51 49
112 112 113 113 113 113 113 113 113 114 114 112 112 110 108 107 105 102 98 95 94 93 91 88 86 84 83 81 80 76 74 73 71 70 67 66 61 58 56 54 51 49 47
Wind_Direction
288 288 287 288 292 293 292 291 291 292 292 293 293 294 295 294 292 289 288 286 287 290 293 293 293 293 294 294 294 297 297 297 296 297 297 300 301 303 304 303 301 300 302
285 286 286 288 290 291 292 292 292 292 291 291 293 295 295 293 292 290 290 291 293 293 294 296 301 300 297 296 295 295 296 296 295 295 295 298 301 301 304 305 304 303 305
285 287 287 287 287 287 287 288 289 290 292 293 295 294 290 288 289 291 291 294 294 296 298 298 302 301 296 295 295 296 296 295 294 295 296 299 303 305 305 306 306 306 307
282 285 285 283 282 284 286 288 290 293 294 293 290 288 287 288 290 291 292 293 292 296 297 298 299 300 300 299 299 299 300 299 298 300 303 305 306 306 304 306 308 308 309
280 279 278 280 282 284 286 288 290 292 290 288 286 286 287 289 290 291 293 293 293 295 297 300 298 300 301 301 302 301 302 303 304 304 305 307 306 307 307 309 310 310 308
278 280 283 284 287 288 290 291 291 288 285 285 285 288 289 289 291 292 290 292 293 295 296 300 301 301 301 302 304 303 303 305 306 306 307 307 308 309 311 311 311 310 309
281 281 285 289 293 293 292 292 291 289 288 286 285 285 285 286 288 291 292 292 294 296 297 303 302 301 300 303 304 306 307 308 306 306 309 310 310 310 311 311 310 309 308
281 288 287 286 292 295 301 294 293 291 288 286 287 287 288 288 290 291 293 295 296 298 300 301 299 299 299 302 306 308 307 308 306 309 309 310 310 310 310 310 309 309 309
279 283 290 297 300 295 299 297 295 294 291 289 290 290 288 288 289 291 295 296 296 297 297 297 299 299 301 304 307 307 307 308 309 308 310 310 310 310 310 309 310 308 308
288 291 291 300 302 303 298 299 296 293 291 292 292 293 293 292 291 292 292 294 296 295 297 298 298 301 305 306 307 307 308 307 307 309 309 309 309 309 310 310 309 309 308
290 294 299 299 302 300 299 297 295 293 292 291 293 294 294 294 294 293 292 293 295 296 297 300 303 304 304 305 305 306 306 305 306 307 307 308 308 309 309 310 309 307 306
290 293 296 297 296 296 295 295 294 294 292 291 289 290 292 292 292 292 293 294 295 297 300 302 302 302 302 303 304 303 304 305 305 306 306 307 307 308 308 308 306 305 304
290 291 294 293 295 295 293 292 292 289 289 289 289 288 289 291 293 293 294 296 298 299 299 299 299 300 301 301 301 303 303 304 305 306 307 306 307 307 307 305 305 304 304
289 290 294 293 292 292 292 293 290 290 290 289 288 290 289 292 294 295 295 295 296 296 297 297 299 299 299 300 301 302 303 304 305 305 306 306 306 307 305 305 304 302 302
290 290 290 292 291 290 290 288 286 287 287 288 290 291 291 290 291 291 292 293 294 296 297 298 298 298 299 300 300 301 302 303 303 304 304 306 305 303 304 303 300 301 302
288 289 288 287 287 287 286 285 288 287 286 287 287 286 288 289 291 291 292 293 294 295 296 296 297 298 299 300 301 302 303 303 303 304 304 304 305 304 303 303 304 302 301
286 287 285 284 283 283 283 283 283 284 286 287 287 287 288 290 290 291 292 293 294 295 295 297 298 299 300 300 301 302 302 303 303 303 306 306 305 305 304 303 303 302 301
281 284 283 282 283 285 286 286 287 286 286 287 287 288 289 290 290 291 292 293 293 295 296 297 298 298 299 299 299 300 301 302 304 304 305 305 303 303 303 303 303 302 301
280 281 283 283 285 286 286 286 286 287 288 289 289 289 290 290 290 291 292 293 295 295 296 296 297 298 298 299 299 301 301 302 303 305 305 304 304 303 302 302 302 301 299
280 281 282 282 283 284 285 287 288 288 289 289 289 289 289 290 291 292 294 294 295 295 296 296 296 298 298 299 300 301 302 303 304 305 305 303 302 302 301 301 300 298 297
280 281 282 283 284 285 286 286 286 286 286 288 289 290 291 292 292 292 293 293 294 295 295 296 297 298 299 301 302 301 301 302 304 303 303 303 302 301 300 299 298 297 296
280 281 282 283 283 284 285 286 287 288 289 290 290 291 291 291 292 292 293 294 294 294 296 297 298 299 299 299 299 300 301 301 302 302 301 301 300 300 299 298 297 297 296
282 283 284 285 285 286 287 287 288 289 289 290 290 290 290 292 292 292 293 294 295 296 297 298 298 298 299 299 299 300 300 301 301 302 301 300 299 300 298 298 297 296 294
283 284 285 286 286 287 287 288 288 289 289 289 290 291 291 292 292 293 294 295 296 296 296 297 298 298 297 297 298 299 300 299 299 300 299 299 299 298 297 296 296 294 292
283 284 284 285 286 287 288 288 288 288 289 290 290 290 291 292 292 293 293 293 294 295 296 296 297 297 296 296 297 297 297 297 298 298 298 297 297 297 295 294 294 292 291
283 284 285 286 286 286 287 288 288 289 289 289 289 290 291 291 291 292 292 293 293 294 294 295 295 295 295 295 296 296 296 296 296 297 296 295 296 294 293 292 291 290 288
Height
10638 10636 10634 10631 10627 10624 10620 10616 10614 10611 10606 10601 10595 10589 10583 10577 10570 10563 10557 10550 10544 10537 10531 10524 10517 10508 10499 10490 10479 10467 10457 10448 10436 10417 10403 10390 10376 10365 10350 10331 10311 10291 10273
10623 10620 10618 10616 10612 10608 10604 10600 10597 10593 10588 10582 10577 10570 10563 10557 10550 10543 10537 10531 10524 10516 10509 10501 10493 10485 10476 10466 10454 10441 10431 10421 10411 10395 10376 10362 10346 10332 10319 10302 10279 10260 10242
10607 10605 10602 10598 10593 10590 10586 10582 10579 10573 10568 10563 10556 10549 10543 10537 10530 10523 10515 10509 10501 10492 10486 10478 10470 10461 10451 10440 10427 10415 10404 10391 10379 10367 10351 10335 10318 10300 10285 10268 10248 10231 10215
10590 10587 10584 10579 10575 10571 10567 10564 10559 10554 10548 10542 10535 10530 10523 10516 10508 10500 10492 10485 10476 10470 10462 10454 10444 10434 10424 10413 10400 10388 10375 10360 10347 10334 10318 10303 10285 10268 10253 10241 10227 10200 10189
10572 10568 10563 10559 10556 10551 10546 10542 10537 10532 10526 10520 10514 10507 10500 10493 10485 10477 10471 10461 10451 10445 10435 10426 10416 10404 10393 10383 10372 10360 10345 10328 10312 10298 10282 10268 10248 10231 10216 10205 10189 10174 10164
10552 10549 10544 10539 10535 10529 10524 10519 10515 10509 10503 10497 10490 10484 10477 10471 10463 10455 10444 10435 10427 10419 10408 10397 10386 10374 10363 10352 10343 10329 10312 10295 10278 10262 10250 10229 10214 10195 10182 10168 10153 10138 10130
10533 10529 10522 10517 10513 10508 10503 10498 10493 10487 10482 10476 10470 10463 10455 10447 10438 10427 10415 10407 10403 10391 10379 10366 10356 10342 10331 10322 10312 10296 10278 10263 10243 10231 10215 10194 10182 10166 10153 10142 10124 10110 10096
10513 10508 10501 10496 10492 10487 10482 10476 10470 10464 10459 10453 10447 10440 10433 10423 10413 10399 10390 10384 10374 10362 10351 10338 10326 10313 10299 10291 10279 10263 10246 10230 10210 10195 10182 10166 10150 10137 10122 10112 10096 10080 10068
10488 10485 10479 10473 10469 10465 10461 10455 10449 10442 10436 10429 10422 10415 10407 10397 10386 10372 10365 10356 10346 10335 10324 10309 10295 10283 10267 10257 10246 10229 10216 10196 10179 10161 10149 10134 10118 10104 10091 10081 10067 10051 10045
10464 10459 10456 10451 10447 10442 10437 10431 10425 10418 10410 10403 10397 10389 10380 10368 10355 10347 10338 10331 10321 10307 10296 10280 10264 10251 10236 10222 10209 10197 10184 10168 10154 10138 10120 10105 10088 10075 10059 10045 10033 10024 10011
10438 10433 10427 10425 10422 10417 10412 10406 10399 10392 10385 10378 10370 10361 10352 10342 10329 10319 10309 10304 10290 10279 10265 10247 10232 10216 10205 10191 10177 10165 10150 10138 10126 10112 10098 10081 10064 10052 10035 10020 10005 9995 9989
10410 10407 10402 10399 10395 10390 10385 10380 10372 10366 10358 10351 10343 10336 10326 10316 10305 10292 10280 10270 10259 10248 10234 10218 10204 10189 10175 10160 10145 10131 10119 10108 10097 10086 10071 10057 10040 10027 10014 10000 9984 9972 9963
10382 10379 10374 10373 10367 10361 10356 10351 10344 10338 10331 10324 10316 10308 10298 10286 10275 10262 10250 10237 10223 10215 10203 10192 10180 10164 10149 10136 10118 10104 10088 10076 10063 10050 10039 10026 10011 9998 9986 9975 9963 9951 9941
10351 10350 10343 10339 10336 10331 10326 10320 10313 10307 10300 10293 10285 10275 10267 10255 10240 10228 10218 10204 10195 10185 10174 10165 10151 10136 10120 10107 10092 10077 10062 10047 10034 10021 10011 9999 9985 9968 9957 9949 9940 9930 9925
10318 10317 10313 10308 10302 10298 10293 10289 10283 10275 10271 10264 10252 10241 10233 10225 10211 10201 10188 10176 10164 10150 10139 10129 10114 10102 10089 10077 10064 10050 10036 10022 10010 9996 9984 9973 9960 9946 9933 9924 9917 9908 9903
10284 10282 10280 10276 10272 10268 10263 10257 10250 10244 10239 10232 10223 10213 10202 10192 10179 10168 10155 10142 10131 10118 10109 10095 10080 10068 10053 10040 10028 10015 10001 9989 9977 9965 9955 9946 9933 9920 9909 9898 9892 9886 9879
10251 10249 10248 10246 10241 10238 10232 10226 10219 10212 10204 10198 10188 10179 10168 10157 10146 10134 10121 10110 10098 10086 10075 10064 10049 10034 10020 10005 9994 9983 9972 9960 9947 9937 9928 9915 9906 9894 9882 9875 9870 9864 9858
10221 10217 10214 10210 10206 10200 10195 10189 10183 10176 10168 10161 10154 10143 10134 10122 10111 10100 10089 10079 10066 10054 10041 10030 10018 10004 9990 9977 9966 9956 9944 9933 9922 9911 9902 9890 9880 9872 9860 9854 9847 9843 9838
10189 10185 10181 10176 10170 10165 10160 10153 10147 10139 10132 10125 10117 10109 10100 10089 10078 10067 10055 10044 10032 10020 10008 9996 9984 9973 9961 9949 9937 9925 9914 9903 9895 9885 9875 9866 9857 9848 9839 9833 9827 9823 9819
10155 10151 10147 10143 10138 10131 10125 10119 10112 10104 10097 10090 10082 10075 10067 10056 10045 10034 10022 10010 9998 9986 9975 9965 9954 9943 9931 9917 9905 9895 9883 9874 9867 9858 9850 9842 9834 9827 9819 9813 9807 9802 9800
10123 10118 10114 10110 10104 10099 10093 10087 10080 10072 10063 10055 10047 10039 10030 10018 10010 9999 9989 9978 9965 9954 9943 9932 9922 9911 9900 9888 9876 9866 9856 9848 9842 9833 9825 9819 9811 9804 9799 9793 9787 9783 9779
10090 10086 10081 10076 10071 10065 10058 10051 10043 10036 10027 10019 10011 10003 9994 9982 9972 9963 9954 9944 9931 9921 9912 9902 9891 9881 9871 9861 9850 9841 9832 9824 9818 9811 9803 9796 9789 9784 9778 9772 9767 9764 9760
10056 10052 10047 10042 10035 10029 10022 10015 10008 10001 9994 9985 9977 9967 9958 9949 9938 9927 9918 9908 9897 9888 9880 9871 9861 9852 9844 9834 9824 9816 9806 9799 9794 9788 9781 9774 9768 9764 9757 9752 9748 9744 9742
10021 10017 10012 10006 10001 9994 9987 9981 9975 9967 9960 9951 9942 9932 9923 9914 9904 9894 9884 9875 9865 9857 9850 9843 9834 9824 9815 9807 9799 9793 9785 9775 9770 9765 9759 9753 9749 9744 9738 9734 9730 9727 9724
9987 9982 9977 9972 9966 9960 9953 9946 9939 9932 9924 9916 9907 9897 9888 9879 9871 9863 9855 9845 9836 9827 9821 9814 9806 9798 9790 9782 9776 9771 9764 9755 9748 9743 9737 9732 9729 9725 9720 9716 9712 9709 9707
9954 9948 9943 9937 9931 9925 9918 9912 9904 9896 9888 9880 9872 9864 9856 9847 9839 9832 9825 9816 9808 9800 9793 9788 9781 9773 9766 9759 9753 9747 9741 9733 9727 9721 9717 9711 9710 9706 9702 9699 9696 9693 9691